This is the latest recevied weather packets stored in our database for station/object AE5HO. If no packets are shown the sender has not sent any weather packets the latest 10 day(s).
| Time | Temp. | Humidity | Pressure | Rain* | Wind** | Luminosity | Snow |
|---|---|---|---|---|---|---|---|
| 1778116867 | 16.67° C | 74% | 1015.1 hPa | 0 mm | - | 0 W/m² | - |
| 1778116566 | 16.67° C | 74% | 1015.1 hPa | 0 mm | - | 0 W/m² | - |
| 1778116262 | 16.67° C | 74% | 1015.2 hPa | 0 mm | - | 0 W/m² | - |
| 1778115956 | 16.67° C | 74% | 1015.1 hPa | 0 mm | - | 1 W/m² | - |
| 1778115652 | 16.67° C | 74% | 1015.1 hPa | 0 mm | - | 1 W/m² | - |
| 1778115350 | 17.22° C | 74% | 1015 hPa | 0 mm | - | 4 W/m² | - |
| 1778115046 | 17.22° C | 74% | 1015.1 hPa | 0 mm | - | 5 W/m² | - |
| 1778114744 | 17.22° C | 74% | 1014.8 hPa | 0 mm | - | 7 W/m² | - |
| 1778114441 | 17.22° C | 73% | 1015 hPa | 0 mm | - | 7 W/m² | - |
| 1778114137 | 17.22° C | 74% | 1015.1 hPa | 0 mm | - | 9 W/m² | - |
| 1778113832 | 17.22° C | 74% | 1014.8 hPa | 0 mm | - | 10 W/m² | - |
| 1778113529 | 17.22° C | 74% | 1015.1 hPa | 0 mm | - | 12 W/m² | - |
| 1778113225 | 17.22° C | 74% | 1014.9 hPa | 0 mm | - | 12 W/m² | - |
| 1778112921 | 17.22° C | 74% | 1014.7 hPa | 0 mm | - | 15 W/m² | - |
| 1778112619 | 17.78° C | 73% | 1014.6 hPa | 0 mm | - | 15 W/m² | - |
| 1778112315 | 17.78° C | 73% | 1014.6 hPa | 0 mm | - | 16 W/m² | - |
| 1778112010 | 17.78° C | 73% | 1014.5 hPa | 0 mm | - | 17 W/m² | - |
| 1778111708 | 17.78° C | 73% | 1014.6 hPa | 0 mm | - | 23 W/m² | - |
| 1778111404 | 17.78° C | 73% | 1014.3 hPa | 0 mm | - | 31 W/m² | - |
| 1778111101 | 17.78° C | 73% | 1014.2 hPa | 0 mm | - | 37 W/m² | - |
| 1778110799 | 17.78° C | 73% | 1014.3 hPa | 0 mm | - | 28 W/m² | - |
| 1778110495 | 17.78° C | 73% | 1014.3 hPa | 0 mm | - | 32 W/m² | - |
| 1778110191 | 17.78° C | 72% | 1014.4 hPa | 0 mm | - | 38 W/m² | - |
| 1778109888 | 18.33° C | 72% | 1014.1 hPa | 0 mm | - | 38 W/m² | - |
| 1778109584 | 18.33° C | 72% | 1014 hPa | 0 mm | - | 35 W/m² | - |
* Rain latest hour (hover to see other rain measurements)
** Current wind speed in m/s (hover to see current wind gust speed)